Regional Weather Roundup
Issued by NWS

Home | Current Version | Previous Version | Text Only | Print | Product List | Glossary Off
Versions: 1 2 3 4 5 6 7 8 9 10 11 12 13 14 15 16 17 18 19 20 21 22 23 24 25 26 27 28 29 30 31 32 33 34 35 36 37 38 39 40 41 42 43 44 45 46 47 48 49 50

000
ASUS43 KDTX 201210
RWRMI
MICHIGAN HOURLY REGIONAL WEATHER ROUNDUP
NATIONAL WEATHER SERVICE DETROIT/PONTIAC MI
ISSUED BY NATIONAL WEATHER SERVICE GRAND RAPIDS MI
800 AM EDT SUN MAY 20 2018

NOTE: "FAIR" INDICATES FEW OR NO CLOUDS BELOW 12,000 FEET WITH NO
SIGNIFICANT WEATHER AND/OR OBSTRUCTION TO VISIBILITY.

MIZ047>049-052>055-059>063-066>070-074>076-081>083-201300-
SOUTHEAST LOWER MICHIGAN

CITY           SKY/WX    TMP DP  RH WIND       PRES   REMARKS
ADRIAN         CLOUDY    59  55  87 NE6       30.10R
6HR MIN TEMP:  58; 6HR MAX TEMP:  60;

ALMA           FAIR      49  45  85 N8        30.13R
6HR MIN TEMP:  48; 6HR MAX TEMP:  56;

ANN ARBOR      CLOUDY    58  56  93 N5        30.08R
BAD AXE        CLOUDY    48  46  92 N10       30.11R
6HR MIN TEMP:  47; 6HR MAX TEMP:  51;

DETROIT CITY   CLOUDY    59  53  80 NE8       30.07R
6HR MIN TEMP:  55; 6HR MAX TEMP:  63;

DETROIT        CLOUDY    60  55  83 N8        30.07R
6HR MIN TEMP:  60; 6HR MAX TEMP:  65; 6HR PCP: TRACE;

FLINT          CLOUDY    55  53  93 NW5       30.09R
6HR MIN TEMP:  53; 6HR MAX TEMP:  59;

GROSSE ILE     CLOUDY    56  55  95 CALM      30.06S
6HR MIN TEMP:  56; 6HR MAX TEMP:  64;

HILLSDALE      CLOUDY    55  54  94 NE5       30.08S
HOWELL         CLOUDY    56  53  88 CALM      30.08S
6HR MIN TEMP:  55; 6HR MAX TEMP:  59; 6HR PCP:  0.01;


CITY           SKY/WX    TMP DP  RH WIND       PRES   REMARKS
JACKSON        CLOUDY    56  54  93 VRB3      30.09R
6HR MIN TEMP:  56; 6HR MAX TEMP:  58;

LANSING        CLOUDY    55  52  89 NW8       30.11R
6HR MIN TEMP:  54; 6HR MAX TEMP:  58;

MASON          CLOUDY    55  52  90 CALM      30.10R
6HR MIN TEMP:  54; 6HR MAX TEMP:  58;

MONROE         CLOUDY    61  59  92 NW7       30.07R
6HR MIN TEMP:  60; 6HR MAX TEMP:  63;

MT. CLEMENS    PTSUNNY   58  58 100 E3        30.05S
6HR MIN TEMP:  55; 6HR MAX TEMP:  63; 6HR PCP:  0.01;

PONTIAC        PTSUNNY   57  53  86 N8        30.06R
6HR MIN TEMP:  56; 6HR MAX TEMP:  60;

PORT HOPE        N/A     46  43  89 N9        30.09R
6HR MIN TEMP:  46; 6HR MAX TEMP:  53;

PORT HURON     CLOUDY    52  50  93 N3        30.09R FOG
TRI CITIES     FAIR      50  45  83 N12       30.11R
6HR MIN TEMP:  49; 6HR MAX TEMP:  58;

YPSILANTI      CLOUDY    61  56  83 N9G29     30.09R
6HR MIN TEMP:  61; 6HR MAX TEMP:  65; 6HR PCP: TRACE;

$$
MIZ043>046-050>051-056>058-064>065-071>073-077>080-201300-
SOUTHWEST LOWER MICHIGAN

CITY           SKY/WX    TMP DP  RH WIND       PRES   REMARKS
BATTLE CREEK   FAIR      58  52  80 NE7       30.10R
6HR MIN TEMP:  56; 6HR MAX TEMP:  59;

BENTON HARBOR  CLOUDY    51  47  86 VRB5      30.12S
6HR MIN TEMP:  48; 6HR MAX TEMP:  51;

BIG RAPIDS     PTSUNNY   46  41  82 N10       30.13R
6HR MIN TEMP:  45; 6HR MAX TEMP:  50;

COLDWATER      CLOUDY    57  55  91 NE7       30.10R
6HR MIN TEMP:  56; 6HR MAX TEMP:  57;

HOLLAND        LGT RAIN  53  46  77 N5        30.12R
6HR MIN TEMP:  50; 6HR MAX TEMP:  53; 6HR PCP: TRACE;

GRAND RAPIDS   PTSUNNY   53  47  79 N6        30.12R
6HR MIN TEMP:  53; 6HR MAX TEMP:  57;

KALAMAZOO      FAIR      59  52  77 CALM      30.12R
6HR MIN TEMP:  56; 6HR MAX TEMP:  59;

MARSHALL       CLOUDY    55  54  95 CALM      30.09S
6HR MIN TEMP:  55; 6HR MAX TEMP:  56;

MOUNT PLEASANT FAIR      47  42  83 N6        30.12R
6HR MIN TEMP:  47; 6HR MAX TEMP:  54;

MUSKEGON       CLOUDY    49  41  74 N8        30.14R
6HR MIN TEMP:  49; 6HR MAX TEMP:  55;

STURGIS        CLOUDY    57  55  92 CALM      30.11R
6HR MIN TEMP:  55; 6HR MAX TEMP:  57;

$$
MIZ016>042-201300-
NORTHERN LOWER MICHIGAN

CITY           SKY/WX    TMP DP  RH WIND       PRES   REMARKS
ALPENA         CLOUDY    47  44  90 N8        30.14R
6HR MIN TEMP:  47; 6HR MAX TEMP:  50;

BEAVER ISLAND  FAIR      43  39  84 N7        30.18R
6HR MIN TEMP:  41; 6HR MAX TEMP:  43;

BELLAIRE       CLOUDY    43  39  88 CALM      30.18R
6HR MIN TEMP:  41; 6HR MAX TEMP:  43;

CADILLAC       CLOUDY    40  40  98 N8        30.14R WCI  35
CHARLEVOIX     FAIR      41  41 100 N7        30.20R
6HR MIN TEMP:  40; 6HR MAX TEMP:  42;

GAYLORD        CLOUDY    42  40  92 VRB6      30.14R
6HR MIN TEMP:  40; 6HR MAX TEMP:  43;

HOUGHTON LAKE  CLOUDY    43  40  89 N6        30.15R
6HR MIN TEMP:  42; 6HR MAX TEMP:  45;

MANISTEE       CLOUDY    43  39  86 VRB6      30.17R
OSCODA         CLOUDY    50  45  81 N10       30.11R
6HR MIN TEMP:  49; 6HR MAX TEMP:  52;

PELLSTON       FAIR      43  41  93 NW6       30.16R
6HR MIN TEMP:  40; 6HR MAX TEMP:  46;

TRAVERSE CITY  CLOUDY    43  38  82 N7        30.17R
6HR MIN TEMP:  43; 6HR MAX TEMP:  45;

LUDINGTON      CLOUDY    43  40  91 N6        30.17R
6HR MIN TEMP:  42; 6HR MAX TEMP:  43;

$$
MIZ007>008-015-201300-
EASTERN UPPER MICHIGAN

CITY           SKY/WX    TMP DP  RH WIND       PRES   REMARKS
KINROSS        FAIR      42  38  85 N12       30.16R
6HR MIN TEMP:  39; 6HR MAX TEMP:  42;

MACKINAC ISLAN FAIR      44  41  91 N9        30.16R
6HR MIN TEMP:  40; 6HR MAX TEMP:  44;

NEWBERRY       FAIR      37  36  96 N9        30.19R WCI  30
6HR MIN TEMP:  35; 6HR MAX TEMP:  39;

S. S. MARIE    FAIR      44  36  73 VRB5      30.17R
6HR MIN TEMP:  42; 6HR MAX TEMP:  45;

$$
MIZ004>006-011>014-085-201300-
CENTRAL UPPER MICHIGAN

CITY           SKY/WX    TMP DP  RH WIND       PRES   REMARKS
MANISTIQUE     FAIR      38  37  94 N12       30.20R WCI  30
6HR MIN TEMP:  37; 6HR MAX TEMP:  40;

ESCANABA       FAIR      39  34  82 N7        30.22R WCI  34
6HR MIN TEMP:  38; 6HR MAX TEMP:  42;

SAWYER-GWINN   SUNNY     36  32  87 CALM      30.23R
$$
MIZ001>003-009>011-084-201300-
WESTERN UPPER MICHIGAN

CITY           SKY/WX    TMP DP  RH WIND       PRES   REMARKS
IRON MOUNTAIN  FAIR      40  33  76 NW7       30.21R
6HR MIN TEMP:  38; 6HR MAX TEMP:  43;

HOUGHTON       FAIR      41  34  76 NW6       30.24R
6HR MIN TEMP:  30; 6HR MAX TEMP:  41;

COPPER HARBOR    N/A     43  35  73 CALM      30.23S
6HR MIN TEMP:  33; 6HR MAX TEMP:  43;

IRONWOOD       FAIR      35  33  92 CALM      30.27R
6HR MIN TEMP:  28; 6HR MAX TEMP:  39;

$$

ABBREVIATIONS USED IN REMARKS
   TC - TEMPERATURE IN CELSIUS
  WCI - WIND CHILL INDEX
   HX - HEAT INDEX
  VSB - VISIBILITY





USA.gov is the U.S. government's official web portal to all federal, state and local government web resources and services.